STARLINK-35743

Last updated on Wed Dec 31 2025 00:02:06 GMT+0000 (Coordinated Universal Time)

1 66578U 25268X 25364.58335648 .00070244 00000+0 25432-2 0 9991 2 66578 43.0003 17.3023 0000978 288.3419 345.5872 15.27512541 6024
UTC large
Height (km)
Speed (km/s)
/
Latitude / Longitude
Inclination (degrees)
Orbital Period (minutes)
Azimuth
Elevation
Range (km)
Doppler Factor

Next 0 passes for location: London (51.5072 / 0.1276)

Sorry there are no passes over London.